Current Version              Previous Version:    01  02  03  04  05  06  07  08  09  10  11  12  13  14  15  16  17  18  19  20  21  22  23  24  25  26  27  28  29  30  
   31  32  33  34  35  36  37  38  39  40  41  42  43  44  45  46  47  48  49  50  51  52  53  54  55  56  57  58  59  60  

[Printable]
394
ASUS44 KLUB 230310
RWRTX
WEST TEXAS WEATHER ROUNDUP
NATIONAL WEATHER SERVICE LUBBOCK TX
1000 PM CDT WED OCT 22 2014

NOTE: "FAIR" INDICATES FEW OR NO CLOUDS BELOW 12,000 FEET WITH NO
SIGNIFICANT WEATHER AND/OR OBSTRUCTIONS TO VISIBILITY.

TXZ004-006>008-010-012-014-016-OKZ002-230400-
TEXAS PANHANDLE/OKLAHOMA PANHANDLE

CITY           SKY/WX    TMP DP  RH WIND       PRES   REMARKS
AMARILLO       CLOUDY    61  59  93 S17       30.12R
CANADIAN       CLOUDY    62  60  94 S10G18    30.09S
DALHART        CLEAR     62  55  77 S12       30.11R
DUMAS          PTCLDY    59  57  94 S10       30.10R FOG
GUYMON         CLEAR     62  59  90 S16       30.05R
HEREFORD       CLEAR     61  60  96 MISG      30.13R
PAMPA          CLOUDY    61  58  91 S16G25    30.12R
PERRYTON       CLOUDY    62  58  87 S17       30.09R
$$

TXZ026-029-035-045-048-230400-
SOUTHERN PANHANDLE/SOUTH PLAINS/ROLLING PLAINS

CITY           SKY/WX    TMP DP  RH WIND       PRES   REMARKS
CHILDRESS      CLOUDY    62  61  96 SE8       30.13R FOG
SEMINOLE       CLEAR     60  58  96 SE7       30.15R
LUBBOCK        CLOUDY    61  59  93 S13       30.14R FOG
PLAINVIEW      MOCLDY    60  59  96 S9        30.12R FOG
SNYDER         PTCLDY    61  57  87 S5        30.13S
$$

TXZ052-054-060>062-072-078-127-140-154-169-230400-
PERMIAN BASIN/CONCHO VALLEY/BIG COUNTRY/EDWARDS PLATEAU

CITY           SKY/WX    TMP DP  RH WIND       PRES   REMARKS
ABILENE        PTCLDY    64  57  78 S6        30.13R
BIG SPRING     CLOUDY    64  54  70 SE12      30.16R
BRADY          MOCLDY    70  52  52 NE3       30.12S
BROWNWOOD      CLOUDY    68  57  68 CALM      30.12R
JUNCTION       CLOUDY    64  61  90 NW3       30.13S
MIDLAND        PTCLDY    62  53  72 SE12      30.12S
ODESSA         PTCLDY    62  50  64 S14       30.13S
SAN ANGELO     MOCLDY    63  56  78 SW7       30.12S
SONORA         CLOUDY    61  59  94 CALM      30.18S
SWEETWATER     PTCLDY    61  59  92 S6        30.16S
WINK           CLEAR     64  57  78 SE12      30.09R
$$

TXZ055-058-074-075-080-082-230400-
FAR WEST/SOUTHWEST MOUNTAINS/TRANS PECOS

CITY           SKY/WX    TMP DP  RH WIND       PRES   REMARKS
ALPINE         PTCLDY    61  58  88 CALM      30.24R
DRYDEN           N/A     60  57  89 SE6       30.11F
EL PASO        CLEAR     66  55  67 CALM      30.11R
FORT STOCKTON  MOCLDY    63  59  87 S21       30.10S
GUADALUPE PASS CLEAR     59  56  89 NE20      30.22R
MARFA          MOCLDY    61  57  88 SE5       30.22S
PECOS          MOCLDY    65  60  85 E7        30.09R
PRESIDIO       FAIR      70  60  70 NE5       30.09R
$$

TXZ014-016-019-021>030-083-230400
TEXAS TECH WEST TEXAS MESONET/TEXAS PANHANDLE/NORTHERN SOUTH PLAINS

CITY           SKY/WX    TMP DP  RH WIND       PRES   REMARKS
ABERNATHY 5ENE   N/A     60  58  92 S16       30.15R
AMARILLO 9NNE    N/A     62  59  91 S17       30.10R
AMARILLO 7SSE    N/A     60  59  96 S13       30.13S
AMHERST 1NE      N/A     61  60  97 S13       30.13R
BOOTLEG 11WNW    N/A     59  56  89 S12       30.15R
CANADIAN 6E      N/A     60  59  95 S10       30.09S
CAPROCK CYN SP   N/A     63  60  91 S10       30.13R
CHILDRESS 2NNE   N/A     61  60  96 SE10      30.11S
CLARENDON 2WSW   N/A     61  59  91 SE13      30.12S
CLAUDE 12SW      N/A     61  59  93 S10       30.13S
DIMMITT 2NE      N/A     59  58  96 SE14      30.13R
FLOYDADA 2NNE    N/A     60  59  97 S12       30.14R
FRIONA 2NE       N/A     60  57  88 S13       30.14R
GOODLETT 3W      N/A     61  58  91 E3        30.11R
HART 3N          N/A     60  59  95 S13       30.13R
HEREFORD 2NW     N/A     60  56  88 S9        30.13R
MCLEAN 1E        N/A     56  56  97 S14       30.11R
MEMPHIS 1NE      N/A     62  61  96 SE5       30.12S
MULESHOE 2SSW    N/A     60  58  92 S10       30.13R
OLTON 6S         N/A     61  58  92 S16       30.13R
PALO DURO SP     N/A     61  58  92 S9        30.14S
PAMPA 2E         N/A     61  58  92 S15       30.12R
PLAINVIEW 1S     N/A     61  60  96 S10       30.13R
SILVERTON 7ESE   N/A     62  58  88 S10       30.14R
TULIA 2ENE       N/A     60  59  95 S15       30.13S
TURKEY 2WSW      N/A     63  60  88 S9        30.12R
UMBARGER 3NNE    N/A     60  59  95 S16       30.13R
$$

TXZ033>036-039>041-045>048-230400
TEXAS TECH WEST TEXAS MESONET/SOUTH PLAINS

CITY           SKY/WX    TMP DP  RH WIND       PRES   REMARKS
AIKEN 3WSW       N/A     61  60  96 S13       30.15R
ANDREWS 2NE      N/A     61  52  72 SE7       30.13R
ANTON 6SSW       N/A     62  60  94 SE13      30.13R
BROWNFIELD 2S    N/A     60  58  95 SE12      30.13S
DENVR CTY 7WNW   N/A     56  54  93 SE5       30.13S
GAIL 2ESE        N/A     61  58  92 S5        30.12S
LAMESA 2SE       N/A     60  55  85 SE8       30.14S
LEVELLAND 4S     N/A     60  58  92 SE9       30.14R
LUBBOCK 3WNW     N/A     62  57  86 S12       30.14R
MORTON 1ENE      N/A     60  59  95 S12       30.13R
ODONNELL 1N      N/A     60  58  92 SE9       30.14R
PLAINS 3N        N/A     58  56  92 SE7       30.14R
RALLS 1SE        N/A     60  59  94 S8        30.15S
REESE CENTER     N/A     60  58  92 S12       30.13R
SEMINOLE 2NNE    N/A     60  57  92 SE9       30.13S
SLATON 2NE       N/A     60  58  92 SE9       30.14S
SNYDER 3E        N/A     60  58  94 SE7       30.12S
SUNDOWN 8SW      N/A     60  59  95 S13       30.13S
TAHOKA 3NNE      N/A     61  58  92 SE9       30.14R
WOLFFORTH 6SSW   N/A     60  60  98 SE8       30.14S
$$

TXZ031-032-036>038-042>044-230400-
TEXAS TECH WEST TEXAS MESONET/ROLLING PLAINS

CITY           SKY/WX    TMP DP  RH WIND       PRES   REMARKS
ASPERMONT 3NE    N/A     62  60  96 SE2       30.11F
FLUVANNA 3WNW    N/A     60  56  86 SE8       30.12S
GRAHAM 5SSW      N/A     59  58  95 SE7       30.13S
GUTHRIE 10WSW    N/A     62  59  90 S3        30.11R
HASKELL 1NW      N/A     62  58  89 N6        30.11R
JAYTON 1SSE      N/A     61  59  92 SE2       30.12R
KNOX CITY 3NW    N/A     62  58  87 E3        30.11S
LK A HENRY 1NW   N/A     61  59  92 SE2       30.12R
NORTHFIELD 1S    N/A     62  61  97 SE3       30.12R
ODELL 4ENE       N/A     60  59  94 E3        30.11S
PADUCAH 10SW     N/A     61  60  94 S3        30.12R
POST 1NE         N/A     59  58  96 NE1       30.13S
RRING SPRGS 3N   N/A     61  58  92 S10       30.12S
SEYMOUR 3NW      N/A     61  58  91 NE5       30.11R
SPUR 1W          N/A     62  59  91 CALM      30.12S
WEINERT 2NNE     N/A     59  58  96 E2        30.11S
WHITE RVR 6NE    N/A     60  58  95 SE5       30.13S
$$

TXZ052-054-060>062-072-078-127-140-154-169-230400-
TEXAS TECH WEST TEXAS MESONET/PERMIAN BASIN/
CONCHO VALLEY/BIG COUNTRY/EDWARDS PLATEAU

CITY           SKY/WX    TMP DP  RH WIND       PRES   REMARKS
COYANOSA 2N      N/A     64  60  84 E8        30.10R
JUNCTION 1SSW    N/A     62  61  96 CALM      30.14S
MERTZON 3NNE     N/A     60  57  89 S2        30.16R
SAN ANGELO 7NW   N/A     62  57  84 CALM      30.13R
STRLNG CT 4WSW   N/A     63  54  73 S7        30.15R
ST LAWRNCE 5SW   N/A     59  50  73 SE7       30.14S
SWEETWATR 11SW   N/A     59  55  87 SE6       30.15S
WALL 1E          N/A     65  54  69 S5        30.13R
$$

TXZ055-058-074-075-080-082-230400-
TEXAS TECH WEST TEXAS MESONET/FAR WEST/SOUTHWEST MOUNTAINS/TRANS PECOS

CITY           SKY/WX    TMP DP  RH WIND       PRES   REMARKS
PRSMN GAP BBNP   N/A     64  61  90 NE14      30.12S
GUADLPE MTN NP   N/A     59  54  84 CALM      30.23S
$$